{"data":{"norad_id":58683,"epoch":"2026-09-19T04:26:41.643744Z","epoch_age_seconds":263341,"freshness":"STALE","line1":"1 58683U 23211S   26262.18520421 -.00001744  00000+0 -53890-4 0  9996","line2":"2 58683  43.0030  72.8264 0000889 276.8438  83.2313 15.27563892153326","mean_motion":15.27563892,"eccentricity":8.89e-5,"inclination_deg":43.003,"raan_deg":72.8264,"arg_perigee_deg":276.8438,"mean_anomaly_deg":83.2313,"bstar":-5.389e-5,"rev_number":15332,"period_min":94.267742746567,"perigee_km":482.48736587842,"apogee_km":483.70729334222,"semimajor_km":6861.2343296103,"source":"CELESTRAK","updated_at":"2026-09-21T09:00:33.945434Z"}}